TimeAST,TemperatureF,Dew PointF,Humidity,Sea Level PressureIn,VisibilityMPH,Wind Direction,Wind SpeedMPH,Gust SpeedMPH,PrecipitationIn,Events,Conditions,WindDirDegrees,DateUTC
12:00 AM,88,45,13,29.49,6,NW,10.4,,,,,310,2013-06-20 21:00:00
12:00 AM,87.8,44.6,22,29.47,-9999.0,NW,10.4,-,N/A,,Clear,310,2013-06-20 21:00:00
1:00 AM,86.0,50.0,29,29.47,-9999.0,West,15.0,-,N/A,,Clear,280,2013-06-20 22:00:00
2:00 AM,84.2,50.0,30,29.47,-9999.0,WNW,6.9,-,N/A,,Clear,290,2013-06-20 23:00:00
3:00 AM,83,46,18,29.48,6,NNW,9.2,,,,,330,2013-06-21 00:00:00
3:00 AM,84.2,46.4,27,29.47,-9999.0,NNW,9.2,-,N/A,,Clear,330,2013-06-21 00:00:00
4:00 AM,82.4,46.4,28,29.47,-9999.0,NW,9.2,-,N/A,,Clear,320,2013-06-21 01:00:00
6:00 AM,85,43,14,29.52,6,WNW,9.2,,,,,300,2013-06-21 03:00:00
6:00 AM,84.2,42.8,23,29.50,-9999.0,WNW,9.2,-,N/A,,Clear,300,2013-06-21 03:00:00
7:00 AM,93.2,41.0,16,29.53,-9999.0,WNW,9.2,-,N/A,,Clear,300,2013-06-21 04:00:00
8:00 AM,96.8,41.0,15,29.53,-9999.0,NW,11.5,-,N/A,,Clear,320,2013-06-21 05:00:00
9:00 AM,102,37,5,29.55,6,WNW,10.4,,,,,290,2013-06-21 06:00:00
9:00 AM,102.2,37.4,11,29.59,-9999.0,West,11.5,-,N/A,,Clear,270,2013-06-21 06:00:00
10:00 AM,105.8,35.6,9,29.53,-9999.0,NW,10.4,-,N/A,,Clear,310,2013-06-21 07:00:00
12:00 PM,111,36,4,29.51,6,North,12.7,,,,,0,2013-06-21 09:00:00
12:00 PM,111.2,35.6,8,29.50,-9999.0,North,12.7,-,N/A,,Clear,360,2013-06-21 09:00:00
1:00 PM,109.4,35.6,8,29.47,-9999.0,NE,16.1,-,N/A,,Clear,50,2013-06-21 10:00:00
2:00 PM,111.2,35.6,8,29.47,-9999.0,NE,12.7,-,N/A,,Clear,40,2013-06-21 11:00:00
3:00 PM,109,34,4,29.48,6,NE,16.1,,,,,50,2013-06-21 12:00:00
3:00 PM,109.4,33.8,7,29.47,-9999.0,NE,16.1,-,N/A,,Clear,50,2013-06-21 12:00:00
4:00 PM,105.8,39.2,10,29.47,-9999.0,NE,11.5,-,N/A,,Clear,50,2013-06-21 13:00:00
5:00 PM,102.2,48.2,16,29.47,-9999.0,NE,6.9,-,N/A,,Clear,40,2013-06-21 14:00:00
6:00 PM,100,43,7,29.47,6,NE,9.2,,,,,40,2013-06-21 15:00:00
6:00 PM,100.4,42.8,14,29.47,-9999.0,NE,9.2,-,N/A,,Clear,40,2013-06-21 15:00:00
7:00 PM,96.8,46.4,18,29.47,-9999.0,NE,6.9,-,N/A,,Clear,40,2013-06-21 16:00:00
8:00 PM,96.8,39.2,14,29.53,-9999.0,NNE,6.9,-,N/A,,Clear,20,2013-06-21 17:00:00
9:00 PM,91,46,13,29.50,6,,2.3,,,,,,2013-06-21 18:00:00
9:00 PM,91.4,46.4,21,29.50,-9999.0,Variable,2.3,-,N/A,,Clear,0,2013-06-21 18:00:00
10:00 PM,89.6,48.2,24,29.50,-9999.0,Variable,3.5,-,N/A,,Clear,0,2013-06-21 19:00:00
11:00 PM,86.0,69.8,58,29.50,-9999.0,West,6.9,-,N/A,,Clear,270,2013-06-21 20:00:00